User: anonymous   Login
Location: Homewood
(41.1836°S, 175.9581°E)
Time: 23:49:21
(UTC+00:00)
Language:

Cosmos 1607 - Orbit

View from above orbital plane
View from above orbital plane
View from above satellite
View from above satellite

Ground track
Ground track

The orbit data is extracted from the following two-line orbital elements,

1 15378U 84112A   24175.26694515 -.00000074  00000-0  13156-4 0  9999
2 15378  64.9908 135.4598 0056731 240.4012 119.1388 13.83641311  4828
Epoch (UTC): 23 June 2024 06:24:24
Eccentricity: 0.0056731
inclination: 64.9908°
perigee height: 909 km
apogee height: 992 km
right ascension of ascending node: 135.4598°
argument of perigee: 240.4012°
revolutions per day: 13.83641311
mean anomaly at epoch: 119.1388°
orbit number at epoch: 482

The dashed part of the orbit path shows where the satellite is in the earth's shadow,  

DLR